Regional Weather Roundup
Issued by NWS

Home | Current Version | Previous Version | Text Only | Print | Product List | Glossary On
Versions: 1 2 3 4 5 6 7 8 9 10 11 12 13 14 15 16 17 18 19 20 21 22 23 24 25 26 27 28 29 30 31 32 33 34 35 36 37 38 39 40 41 42 43 44 45 46 47 48 49 50
000
ASUS45 KCYS 272010
RWRWY

WYOMING REGIONAL WEATHER ROUNDUP
NATIONAL WEATHER SERVICE CHEYENNE WY
200 PM MDT FRI MAY 27 2016

NOTE:  "FAIR" INDICATES FEW OR NO CLOUDS BELOW 12,000 FEET
WITH NO SIGNIFICANT WEATHER AND/OR OBSTRUCTIONS TO VISIBILITY.

WYZ001-272100-
YELLOWSTONE NATIONAL PARK

CITY           SKY/WX    TMP DP  RH WIND       PRES   REMARKS
LK YELLOWSTONE   N/A     41  35  79 VRB3      30.05R
W YELLOWSTONE  NOT AVBL

$$
WYZ002>013-054>058-071-098>099-272100-
NORTHERN WYOMING

CITY           SKY/WX    TMP DP  RH WIND       PRES   REMARKS
JACKSON          N/A     54  36  50 S16       29.97S
CODY           FAIR      64  39  39 NE6       29.84F
GREYBULL       FAIR      69  38  32 VRB3      29.82F
WORLAND        FAIR      68  35  29 CALM      29.84F
SHERIDAN       PTSUNNY   68  44  42 CALM      29.86F
BUFFALO        PTSUNNY   63  43  48 N6        29.90S
GILLETTE       PTSUNNY   64  41  42 N15G21    29.87F
HULETT         CLOUDY    59  43  55 N5        29.90S
NEWCASTLE      FAIR      63  34  34 N10G16    29.87S

$$
WYZ014>020-022>026-101>103-272100-
CENTRAL WYOMING

CITY           SKY/WX    TMP DP  RH WIND       PRES   REMARKS
BIG PINEY      FAIR      57  35  43 VRB5      29.98F
PINEDALE       MOCLDY    57  30  35 CALM      29.98F
DUBOIS         CLOUDY    57  23  26 W17G23    29.93F
LANDER         FAIR      60  39  45 S12       29.87F
RIVERTON       FAIR      66  35  31 E7        29.88F
CASPER         PTSUNNY   62  34  35 CALM      29.88F
DOUGLAS          N/A    N/A N/A N/A MISG      29.89F

$$
WYZ021-027>030-104>119-272100-
SOUTHERN WYOMING

CITY           SKY/WX    TMP DP  RH WIND       PRES   REMARKS
EVANSTON       LGT RAIN  48  35  60 SE5G18    30.02S
KEMMERER         N/A     57  30  35 W12G21    30.00F
FORT BRIDGER   MOCLDY    61  36  39 NW13G22   30.02F
ROCK SPRINGS   FAIR      57  32  38 NW10      29.95F
DIXON          FAIR      62  35  37 W10       29.96F
RAWLINS        FAIR      61  30  31 W8        29.94F
SARATOGA       FAIR      57  32  38 N20G28    29.96F
LARAMIE        PTSUNNY   56  30  37 N14       29.94F
CHEYENNE       FAIR      58  34  40 NE14G26   29.91F
TORRINGTON     CLOUDY    55  48  77 SE15      29.89R
PINE BLUFFS    MOCLDY    50  46  87 E12G17    29.93S

$$



USA.gov is the U.S. government's official web portal to all federal, state and local government web resources and services.